Flag for Germany Weather past 2 weeks in Gronau (Westfalen), North Rhine-Westphalia, Germany

Now
59 °F

Refreshingly cool.


Feels Like: 60 °F
Forecast: 50 / 57 °F
Wind: 3 mph from West

Location: Rheine-Bentlage

Current Time: May 24, 2015 at 1:37:25 PM

Latest Report: May 24, 2015 at 12:20 PM


Visibility: N/A

Pressure: 30.12 "Hg

Humidity: 55%

Dew point: 43 °F

Location of Gronau (Westfalen)Location

Historic Weather in Gronau (Westfalen) — Graph

°F

Gronau (Westfalen) temperature yesterday

Maximum temperature yesterday: 59 °F (at 9:20 AM)
Minimum temperature yesterday: 48 °F (at 11:20 PM)
Average temperature yesterday: 56 °F

Past Weeks' High & Low Weather Summary

 TemperatureHumidityPressure
High77 °F (May 11, 4:20 PM)100% (May 16, 5:20 AM)30.33 "Hg (May 16, 5:20 AM)
Low37 °F (May 16, 3:20 AM)36% (May 11, 4:20 PM)29.59 "Hg (May 18, 7:20 PM)
Average54 °F69%30.07 "Hg
* Reported May 9 12:20 PM — May 24 12:20 PM, Gronau (Westfalen), Weather by CustomWeather, © 2015

Note: Actual official high and low records may vary slightly from our data, if they occured in-between our weather recording intervals... More about our weather records

Advertising

Gronau (Westfalen) weather history for previous 24 hours

 ConditionsComfort  
Time TempWeatherWind HumidityBarometerVisibility
12:20 PM
Sun, May 24
59 °FRefreshingly cool.3 mph55%30.12 "HgN/A
11:20 AM57 °FRefreshingly cool.5 mph59%30.12 "HgN/A
10:20 AM54 °FCool.2 mph67%30.15 "HgN/A
9:20 AM52 °FCool.2 mph67%30.15 "HgN/A
8:20 AM50 °FCool.2 mph71%30.15 "HgN/A
7:20 AM45 °FQuite cool.2 mph87%30.15 "HgN/A
6:20 AM39 °FChilly.No wind93%30.15 "HgN/A
5:20 AM39 °FChilly.No wind93%30.15 "HgN/A
4:20 AM39 °FChilly.No wind93%30.18 "HgN/A
3:20 AM41 °FQuite cool.No wind93%30.18 "HgN/A
2:20 AM43 °FQuite cool.No wind87%30.18 "HgN/A
1:20 AM46 °FCool.1 mph76%30.18 "HgN/A
12:20 AM46 °FCool.3 mph76%30.18 "HgN/A
11:20 PM
Sat, May 23
48 °FCool.6 mph76%30.18 "HgN/A
10:20 PM52 °FCool.7 mph67%30.18 "HgN/A
9:20 PM54 °FCool.8 mph67%30.18 "HgN/A
8:20 PM57 °FCool.5 mph63%30.15 "HgN/A
7:20 PM59 °FRefreshingly cool.6 mph59%30.15 "HgN/A
6:20 PM59 °FRefreshingly cool.7 mph59%30.15 "HgN/A
5:20 PM57 °FCool.8 mph67%30.15 "HgN/A
4:20 PM55 °FCool.7 mph77%30.18 "HgN/A
3:20 PM54 °FCool.9 mph82%30.18 "HgN/A
2:20 PM54 °FCool.9 mph88%30.18 "HgN/A
1:20 PM55 °FCool.10 mph88%30.18 "HgN/A
Weather by CustomWeather, © 2015

See weather overviewHow to use our weather pages